{"data":{"norad_id":66497,"intl_designator":"2025-263N","name":"STARLINK-35899","alt_names":[],"object_type":"PAYLOAD","status":"ACTIVE","operator":null,"country":"US","launch_date":"2025-11-15","launch_site_code":"AFETR","launch_vehicle":null,"mission":null,"orbit_class":"UNKNOWN","rcs_meters":null,"size_class":null,"mass_kg":null,"dimensions":null,"purposes":["comms"],"wikipedia_slug":null,"has_3d_model":false,"image_url":null,"decayed_at":null,"tle_current":{"epoch":"2026-09-20T21:09:25.130304Z","epoch_age_seconds":56915,"freshness":"FRESH","line1":"1 66497U 25263N   26263.88154086  .00007460  00000+0  28030-3 0  9991","line2":"2 66497  42.9998 328.1223 0001489 271.8995  88.1686 15.27583636 48756","mean_motion":15.27583636,"eccentricity":0.0001489,"inclination_deg":42.9998,"raan_deg":328.1223,"arg_perigee_deg":271.8995,"mean_anomaly_deg":88.1686,"bstar":0.0002803,"rev_number":4875,"period_min":94.266524337133,"perigee_km":482.01657958065,"apogee_km":484.05983755776,"semimajor_km":6861.1752085692,"source":"CELESTRAK","updated_at":"2026-09-21T09:00:35.921470Z"}}}